sat.trackr.live / text

‹ back to catalog

STARLINK-5647

NORAD 55355 · 2023-013AA

PAYLOAD ACTIVE UNKNOWN

§ Identity

Operator
Country
US
Launch date
2023-01-26
Launch site
AFETR
Launch vehicle
Mass (kg)
RCS (m²)

Purposes: comms

External: N2YO · Heavens-Above · Gunter

§ Orbital elements

Epoch: 2026-09-20T12:55:46.354944Z

Period
94.27 min
Inclination
43.0015°
Eccentricity
0.0001194
Mean motion
15.27577803 rev/d
Perigee alt
482.2 km
Apogee alt
483.9 km
Semi-major
6,861.2 km
B*
2.1491e-5
RAAN
282.9364°
Arg perigee
265.5595°
Mean anomaly
94.5120°
Rev number
20,146

§ Raw data

STARLINK-56471 55355U 23013AA  26263.53873096  .00000329  00000+0  21491-4 0  99962 55355  43.0015 282.9364 0001194 265.5595  94.5120 15.27577803201463

JSON: /api/v1/satellites/55355 · /tle

For live sub-satellite position, see the globe view (requires WebGL).

§ Visibility from observer

Set your observer location to see the next 7 days of passes ≥ 10°. The values pass through the URL so the page stays shareable.

No JS? Fill the form by hand. The geolocation button needs JavaScript.